SCP
-0 -0 -0 -0 -0 -0 0 -0 -0 -0 -0 -0 -0 -0 -0 -0 0 0 0 0 0 0 0 0 -0 0 0 0 0 0 0 0 0 0 0 0 0 0 0 0 0 0 0 0 0 0 0 0 0 0 0 0 0 0
-0 -0 -0 -0 -0 -0 -0 -0 -0 -0 -0 -0 -0 -0 -0 0 0 0 0 0 0 0 0 0 0 -0 -0 -0 0 0 0 0 0 0 0 0 0 0 0 0 0 0 0 0 0 0 0 0 0 0 0 0 0 0
0 -0 -0 -0 -0 -0 -0 -0 -0 -0 -0 0 -0 -0 -0 -0 -0 0 0 0 0 0 -0 0 0 0 -0 -0 -0 0 -0 -0 -0 -0 -0 -0 -0 -0 0 0 0 0 0 0 0 0 0 0 0 0 0 0 0 0
0 0 0 0 -0 -0 -0 0 0 -0 -0 -0 0 -0 -0 -0 0 0 0 0 0 0 0 0 -0 0 -0 -0 -0 -0 -0 -0 -0 -0 -0 -0 -0 -0 -0 -0 0 0 0 0 0 0 0 0 0 0 0 0 0 0
0 0 0 0 -0 -0 -0 -0 -0 -0 0 0 -0 0 0 0 0 0 0 0 0 0 0 0 -0 -0 -0 -0 -0 -0 -0 -0 -0 -0 -0 -0 -0 -0 0 0 -0 0 0 0 0 0 0 0 0 0 0 0 0 0
-0 -0 -0 0 0 0 -0 -0 0 -0 -0 -0 0 0 0 -0 0 0 0 0 0 0 0 0 -0 -0 -0 -0 0 -0 -0 -0 -0 -0 -0 -0 0 -0 0 0 0 0 0 0 0 0 0 0 0 0 0 0 0 0
-0 -0 -0 -0 -0 -0 -0 -0 -0 -0 -0 -0 0 0 0 -0 0 0 0 0 0 0 0 0 0 -0 -0 0 0 -0 -0 0 0 0 0 0 0 0 0 0 0 0 0 0 0 0 0 0 0 0 0 0 0 0
0 -0 -0 -0 -0 -0 -0 -0 -0 -0 0 0 0 -0 -0 -0 -0 0 0 0 0 0 0 0 0 0 -0 0 0 0 0 0 0 0 0 0 0 0 0 0 0 0 0 0 0 0 0 0 0 0 0 0 0 0
-0 -0 0 -0 -0 0 0 0 -0 -0 -0 0 -0 -0 0 0 0 0 0 0 0 0 0 0 0 0 0 0 0 0 0 0 0 0 0 0 0 0 0 -0 0 0 0 0 0 0 0 0 0 0 0 0 0 0
-0 0 0 0 0 -0 0 0 0 0 0 0 0 0 0 0 0 0 0 0 -0 0 0 0 0 0 0 0 0 0 0 0 0 0 0 0 0 0 0 0 0 0 0 0 0 0 0 0 0 0 0 0 0 0
0 0 0 0 0 0 0 0 0 0 0 0 0 0 0 0 0 0 0 0 -0 -0 0 0 0 0 0 0 0 0 0 0 0 0 0 0 0 0 0 0 0 0 0 0 0 0 0 0 0 0 0 0 0 0
0 0 0 0 0 0 0 0 0 0 0 0 0 0 0 0 0 0 0 0 0 0 0 0 0 0 0 0 0 0 0 0 0 0 0 0 0 0 0 0 0 0 0 0 0 0 0 0 0 0 0 0 0 0
0 0 -0 0 0 0 0 0 0 -0 0 0 0 0 0 0 0 0 0 0 0 0 0 0 0 0 0 0 0 0 0 0 0 0 0 0 0 0 0 0 0 0 0 0 0 0 0 0 0 0 0 0 0 0
0 0 0 0 0 0 0 0 0 0 0 0 0 0 0 0 0 0 0 0 0 0 0 0 0 0 0 0 0 0 0 0 0 0 0 0 0 0 0 0 0 0 0 0 0 0 0 0 0 0 0 0 0 0
0 0 0 0 0 0 0 0 0 0 0 0 0 0 0 0 0 0 0 0 0 0 0 0 0 0 0 0 0 0 0 0 0 0 0 0 0 0 0 0 0 0 0 0 0 0 0 0 0 0 0 0 0 0
0 0 0 0 0 0 0 0 0 0 0 0 0 0 0 0 0 0 0 0 0 0 0 0 0 0 0 0 0 0 0 0 0 0 0 0 0 0 0 0 0 0 0 0 0 0 0 0 0 0 0 0 0 0
0 0 0 0 0 0 0 0 0 0 0 0 0 0 0 0 0 0 0 0 0 0 0 0 0 0 0 0 0 0 0 0 0 0 0 0 0 0 0 0 0 0 0 0 0 0 0 0 0 0 0 0 0 0
0 0 0 0 0 0 0 0 0 0 0 0 0 0 0 0 0 0 0 0 0 0 0 0 0 0 0 0 0 0 0 0 0 0 0 0 0 0 0 0 0 0 0 0 0 0 0 0 0 0 0 0 0 0
0 0 0 0 0 0 0 0 0 0 0 0 0 0 0 0 0 0 0 0 0 0 0 0 0 0 0 0 0 0 0 0 0 0 0 0 0 0 0 0 0 0 0 0 0 0 0 0 0 0 0 0 0 0
0 0 0 0 0 0 0 0 0 0 0 0 0 0 0 0 0 0 0 0 0 0 0 0 0 0 0 0 0 0 0 0 0 0 0 0 0 0 0 0 0 0 0 0 0 0 0 0 0 0 0 0 0 0
0 0 0 0 0 0 0 0 0 0 0 0 0 0 0 0 0 0 0 0 0 0 0 0 0 0 0 0 0 0 0 0 0 0 0 0 0 0 0 0 0 0 0 0 0 0 0 0 0 0 0 0 0 0
0 0 0 0 0 0 0 0 0 0 0 0 0 0 0 0 0 0 0 0 0 0 0 0 0 0 0 0 0 0 0 0 0 0 0 0 0 0 0 0 0 0 0 0 0 0 0 0 0 0 0 0 0 0
0 0 0 0 0 0 0 0 0 0 0 0 0 0 0 0 0 0 0 0 0 0 0 0 0 0 0 0 0 0 0 0 0 0 0 0 0 0 0 0 0 0 0 0 0 0 0 0 0 0 0 0 0 0
0 0 0 0 0 0 0 0 0 0 0 0 0 0 0 0 0 0 0 0 0 0 0 0 0 0 0 0 0 0 0 0 0 0 0 0 0 0 0 0 0 0 0 0 0 0 0 0 0 0 0 0 0 0
0 0 0 0 0 0 0 0 0 0 0 0 0 0 0 0 0 0 0 0 0 0 0 0 0 0 0 0 0 0 0 0 0 0 0 0 0 0 0 0 0 0 0 0 0 0 0 0 0 0 0 0 0 0
0 0 0 0 0 0 0 0 0 0 0 0 0 0 0 0 0 0 0 0 0 0 0 0 0 0 0 0 0 0 0 0 0 0 0 0 0 0 0 0 0 0 0 0 0 0 0 0 0 0 0 0 0 0
0 0 0 0 0 0 0 0 0 0 0 0 0 0 0 0 0 0 0 0 0 0 0 0 0 0 0 0 0 0 0 0 0 0 0 0 0 0 0 0 0 0 0 0 0 0 0 0 0 0 0 0 0 0
0 0 0 0 0 0 0 0 0 0 0 0 0 0 0 0 0 0 0 0 0 0 0 0 0 0 0 0 0 0 0 0 0 0 0 0 0 0 0 0 0 0 0 0 0 0 0 0 0 0 0 0 0 0
0 0 0 0 0 0 0 0 0 0 0 0 0 0 0 0 0 0 0 0 0 0 0 0 0 0 0 0 0 0 0 0 0 0 0 0 0 0 0 0 0 0 0 0 0 0 0 0 0 0 0 0 0 0
0 0 0 0 0 0 0 0 0 0 0 0 0 0 0 0 0 0 0 0 0 0 0 0 0 0 0 0 0 0 0 0 0 0 0 0 0 0 0 0 0 0 0 0 0 0 0 0 0 0 0 0 0 0
0 0 0 0 0 0 0 0 0 0 0 0 0 0 0 0 0 0 0 0 0 0 0 0 0 0 0 0 0 0 0 0 0 0 0 0 0 0 0 0 0 0 0 0 0 0 0 0 0 0 0 0 0 0
0 0 0 0 0 0 0 0 0 0 0 0 0 0 0 0 0 0 0 0 0 0 0 0 0 0 0 0 0 0 0 0 0 0 0 0 0 0 0 0 0 0 0 0 0 0 0 0 0 0 0 0 0 0
0 0 0 0 0 0 0 0 0 0 0 0 0 0 0 0 0 0 0 0 0 0 0 0 0 0 0 0 0 0 0 0 0 0 0 0 0 0 0 0 0 0 0 0 0 0 0 0 0 0 0 0 0 0
Wind_Speed_500mb
8 9 8 1 5 8 9 6 5 6 7 12 14 13 3 7 10 10 9 3 3 7 8 13 9 8 12 15 7 13 11 4 5 5 7 7 7 9 3 8 12 13 15 9 10 7 19 12 5 22 12 10 10 7
5 6 8 9 8 5 9 8 8 6 6 10 25 23 12 10 10 8 6 4 3 2 6 2 6 15 14 16 12 28 3 10 15 5 2 5 3 4 8 7 2 6 12 9 18 14 10 27 4 12 13 12 4 9
6 8 10 10 8 11 12 6 7 6 5 9 6 19 15 12 9 7 5 4 3 1 0 4 5 10 16 15 21 9 8 15 11 11 14 6 5 6 7 10 5 11 17 8 3 7 11 35 25 14 5 9 9 23
7 8 10 13 13 11 9 11 9 7 8 5 3 10 11 8 5 5 8 8 9 3 5 4 6 7 10 18 20 19 11 12 8 13 4 3 4 11 6 6 8 12 12 9 11 9 18 24 34 13 9 16 20 26
6 6 8 9 13 17 16 12 10 9 8 9 12 13 14 14 11 12 14 8 13 6 3 9 3 7 10 14 18 22 19 14 7 3 3 5 7 1 3 4 12 24 18 10 16 18 12 10 13 21 34 31 33 31
7 7 7 8 11 12 16 18 18 14 10 10 9 14 20 20 16 9 5 7 15 6 5 2 4 1 3 9 7 4 14 16 9 7 7 10 10 8 4 9 21 37 54 60 22 33 24 20 34 42 31 28 27 30
4 6 8 7 8 13 14 17 19 20 16 11 10 8 13 17 15 12 6 13 18 9 5 6 2 5 9 13 11 12 13 8 10 6 10 6 7 13 5 9 14 30 31 36 50 39 31 34 19 23 28 27 27 29
4 4 6 8 9 11 13 16 19 23 19 12 8 3 12 17 18 15 17 19 16 9 7 6 3 4 14 10 8 11 7 9 8 7 5 3 6 7 12 36 17 22 20 28 31 30 29 26 24 23 26 32 34 30
8 10 11 11 11 14 17 16 16 19 20 12 7 7 5 4 5 6 11 15 22 11 5 6 10 8 17 8 7 9 7 3 5 3 2 3 4 13 19 33 38 31 16 9 8 17 21 28 35 36 36 29 30 26
14 14 14 14 13 13 14 16 17 22 20 12 8 2 3 3 7 8 3 7 9 9 8 5 11 3 9 10 5 7 5 4 3 5 8 3 9 59 67 63 56 45 31 28 30 35 36 35 22 22 25 27 26 23
20 19 20 19 18 18 17 17 15 16 13 10 5 4 4 7 5 5 4 3 2 4 8 7 11 7 12 6 6 5 4 2 1 6 5 5 7 12 10 15 15 22 43 55 54 48 41 34 28 23 22 23 24 23
27 26 25 23 23 23 21 21 17 14 15 14 15 9 6 4 3 6 3 5 2 9 12 12 10 7 10 8 8 2 6 3 9 5 5 7 10 27 20 10 11 13 15 17 20 23 26 26 24 21 21 23 25 23
33 31 30 28 25 24 23 25 20 17 22 13 2 6 5 2 6 11 10 8 4 17 24 18 4 9 9 6 13 6 6 8 2 4 8 11 17 11 12 18 21 22 22 21 21 22 24 24 23 24 23 27 27 24
38 37 34 32 28 25 22 22 17 12 8 4 5 7 9 6 10 10 9 9 8 6 39 29 17 7 7 7 3 7 4 4 5 3 13 7 23 10 29 23 23 19 22 25 26 27 28 27 27 26 26 29 28 24
44 41 38 35 29 23 20 22 15 8 6 7 7 9 13 14 11 9 17 11 13 44 39 20 14 5 4 7 3 7 7 8 13 11 8 15 10 21 22 17 13 13 17 22 27 31 28 29 32 30 30 31 29 29
46 41 47 37 33 25 32 19 16 9 8 12 16 5 12 1 6 17 28 21 37 50 22 9 7 7 5 8 6 15 12 15 9 8 28 18 17 23 21 18 18 23 29 33 35 33 32 34 36 35 32 32 31 28
44 53 44 34 32 39 27 24 11 14 14 13 16 34 26 11 10 13 29 29 51 38 6 9 9 19 7 4 7 11 13 10 19 28 21 17 22 27 27 27 30 34 35 34 30 27 30 34 38 38 33 31 32 28
61 62 50 34 50 41 35 26 13 14 18 30 12 25 31 30 20 22 30 44 48 32 25 12 22 7 13 13 10 11 46 46 38 29 26 24 25 30 35 35 35 33 30 28 29 32 36 39 39 34 34 33 27 25
67 62 49 48 43 37 21 24 22 14 32 14 28 31 27 23 42 30 35 52 46 31 18 20 6 10 14 17 24 36 36 36 35 34 35 33 38 38 38 36 34 34 35 37 40 41 40 38 34 32 28 26 22 21
62 61 57 45 43 32 16 15 23 16 13 14 26 22 18 16 29 34 40 57 49 20 10 8 15 40 30 52 47 52 48 41 39 41 44 41 36 35 34 35 37 40 41 42 39 36 33 30 28 25 23 21 18 18
60 69 56 54 61 40 14 15 21 15 12 14 13 19 11 14 18 26 31 54 31 19 10 71 92 103 90 83 80 79 74 66 62 55 50 37 38 34 37 39 42 41 38 35 33 31 29 25 25 21 20 18 15 16
72 74 70 73 32 27 26 30 17 14 14 9 15 20 10 8 16 21 31 35 24 46 64 81 89 84 91 105 103 99 90 76 66 61 56 52 47 47 47 45 39 35 32 27 24 23 21 18 16 15 15 14 15 18
70 80 54 41 27 37 17 34 23 22 8 10 15 4 8 12 14 29 15 27 33 44 75 96 106 107 109 103 99 96 83 71 70 69 65 61 54 51 43 37 33 28 23 19 17 15 13 13 13 13 14 15 16 16
79 50 37 41 39 15 23 25 15 16 10 7 8 8 7 14 20 8 11 15 58 56 51 66 74 90 102 105 99 97 92 81 70 59 56 52 45 39 35 31 26 24 21 17 16 15 14 14 13 13 12 11 10 7
29 27 25 15 29 15 13 12 10 6 9 9 8 9 6 14 4 9 10 10 39 58 74 72 72 78 90 90 83 75 59 54 57 53 44 40 37 35 33 30 27 24 20 18 17 16 15 13 12 10 8 5 2 2
28 32 35 31 25 17 21 18 22 16 10 14 16 13 11 6 4 16 7 7 6 28 42 51 54 57 67 67 67 59 43 35 38 45 40 37 33 30 29 27 24 21 19 19 18 16 15 13 11 8 8 8 7 5
22 16 29 38 32 23 13 13 14 8 15 18 11 14 10 11 15 10 12 14 13 21 27 33 35 36 39 35 31 33 31 29 34 30 26 35 37 30 25 20 17 18 17 18 17 15 13 12 13 14 13 10 6 3
17 31 32 27 13 28 15 11 17 23 13 19 24 14 23 21 12 7 9 9 8 8 9 9 16 23 25 20 20 26 31 31 31 34 35 36 31 24 19 19 21 18 16 17 16 16 18 19 18 16 13 9 7 5
8 33 51 18 6 9 16 19 19 27 41 39 19 12 12 17 13 12 10 10 9 8 13 15 14 16 17 17 21 29 29 35 41 46 42 37 29 23 23 23 21 20 20 20 20 22 21 20 18 14 12 10 7 3
16 48 19 18 20 23 20 36 23 42 48 30 23 17 15 13 12 10 9 10 11 14 16 16 14 14 14 19 26 30 36 41 38 33 33 26 23 17 22 24 22 23 25 26 26 25 23 20 17 15 11 7 3 3
43 42 11 10 10 9 26 28 32 36 38 27 22 17 20 19 16 8 4 5 9 11 12 12 14 13 16 19 24 26 37 42 35 29 29 27 25 20 22 25 26 27 27 27 26 24 22 21 18 14 9 4 2 8
8 7 13 11 4 23 32 10 17 10 9 10 8 12 15 11 9 9 21 13 6 7 8 10 14 16 19 25 25 24 21 28 36 27 23 24 24 26 28 28 30 31 30 29 27 24 23 19 15 12 7 4 8 14
3 9 11 9 6 6 11 14 8 6 13 8 10 9 10 10 8 20 28 29 18 10 10 12 16 18 21 24 26 26 26 23 24 32 30 31 31 30 29 31 32 31 29 28 26 24 21 18 15 10 7 10 16 22
Wind_Direction_500mb
43 52 72 214 235 200 201 205 209 247 292 254 219 209 228 9 347 339 329 323 39 108 157 184 189 164 160 175 153 162 131 203 124 146 146 213 172 218 185 227 180 173 171 191 178 179 262 181 107 165 192 160 171 148
26 30 36 63 43 315 257 230 224 247 272 285 237 218 234 269 283 297 300 253 167 79 139 181 265 223 215 191 161 176 178 157 156 109 198 101 184 185 190 260 213 237 196 188 183 208 269 219 295 210 116 118 117 307
32 28 16 29 35 26 13 318 267 278 316 11 146 195 225 248 269 287 279 179 188 188 322 181 208 202 218 209 199 180 220 176 189 187 169 189 202 138 181 235 218 236 204 224 97 203 246 269 279 286 286 302 295 297
50 43 32 21 18 16 12 1 351 309 285 283 189 205 232 249 268 283 278 194 193 180 145 144 183 219 225 217 214 213 169 180 179 181 156 142 191 186 233 251 210 211 142 201 255 260 250 230 231 218 276 289 287 293
46 29 21 19 14 2 354 348 331 332 322 280 258 244 238 245 261 278 290 262 204 197 169 143 179 222 237 231 221 214 210 197 167 173 159 225 233 186 266 305 245 199 217 198 242 213 230 205 259 282 309 306 296 296
82 53 38 21 20 355 0 360 349 336 309 298 294 260 250 247 249 258 240 188 177 199 168 96 125 200 164 184 192 159 201 202 184 200 218 232 233 212 249 253 249 230 239 243 241 256 249 281 289 285 273 275 279 286
76 48 36 23 13 353 351 351 352 351 335 309 293 280 244 243 240 217 214 176 185 197 201 91 81 173 171 152 171 192 195 201 204 225 233 234 238 215 236 245 246 228 229 246 243 252 263 257 254 254 269 281 291 297
310 334 348 6 2 355 353 350 349 354 355 343 322 244 197 209 246 239 214 187 203 230 209 116 248 202 182 180 183 190 195 195 220 260 263 312 261 241 253 243 236 243 258 261 245 236 243 262 268 275 284 290 292 296
286 308 316 320 339 350 356 356 355 357 355 349 278 282 286 231 209 196 200 208 206 214 198 143 148 210 170 164 159 162 193 195 238 236 277 303 235 230 235 257 263 266 251 242 248 229 247 270 279 281 283 287 293 293
277 282 288 298 304 311 330 346 352 353 349 336 312 257 229 196 163 159 177 174 187 216 227 181 141 151 151 160 134 142 205 216 220 262 308 171 256 256 254 252 257 256 249 239 246 249 262 275 262 256 265 271 274 277
269 279 286 290 290 290 294 312 337 348 352 346 309 266 207 182 203 179 188 118 284 324 209 151 183 146 177 135 178 195 193 308 287 264 148 281 271 246 269 249 236 233 241 250 253 257 258 259 267 272 278 278 276 280
264 271 276 280 286 289 289 293 305 323 326 308 266 237 244 206 157 94 242 337 138 222 177 147 147 130 143 153 119 143 130 43 236 329 61 270 252 255 245 193 194 204 211 215 221 227 237 246 259 276 283 278 276 279
259 263 266 270 272 275 280 285 296 314 325 319 168 188 187 204 37 147 215 276 285 177 174 160 142 145 131 149 83 93 101 218 151 51 235 234 257 230 232 223 230 236 238 243 249 252 256 259 273 283 282 278 276 278
256 259 260 260 260 260 261 267 281 303 323 279 222 275 164 251 242 191 185 193 179 179 155 137 115 135 123 76 124 107 233 63 29 313 237 249 252 258 215 231 251 253 259 259 264 268 270 268 272 278 278 278 281 281
249 250 250 248 244 236 233 249 254 271 247 254 198 237 217 233 246 220 207 168 150 150 146 117 90 139 21 88 37 99 28 259 212 231 230 244 249 218 208 222 246 266 277 280 274 268 266 263 271 276 281 281 279 277
243 246 240 237 230 210 221 221 227 232 229 228 228 263 218 224 235 208 200 185 165 158 145 123 111 69 249 135 119 215 145 225 242 217 236 235 234 214 216 235 256 274 284 282 277 269 264 267 274 279 278 276 276 278
227 232 242 232 210 209 207 204 214 222 230 228 241 223 222 257 222 191 195 181 172 163 175 133 137 211 109 52 253 192 212 219 206 221 209 227 234 227 243 259 274 281 283 282 276 275 278 280 279 277 276 269 271 274
221 231 233 217 206 197 199 198 218 240 241 232 218 228 219 222 219 206 198 183 170 187 161 199 138 159 202 198 238 226 227 237 241 236 243 245 231 240 254 263 265 268 267 268 277 284 285 282 277 273 265 267 268 272
223 223 217 222 201 189 193 202 208 244 235 232 234 234 223 229 223 226 205 192 188 179 171 167 172 208 223 220 235 250 249 255 261 262 261 250 258 259 258 257 256 258 265 275 283 284 281 277 272 265 265 266 268 273
216 213 219 216 202 189 214 218 201 246 243 228 225 210 209 215 221 217 211 195 188 178 193 208 221 231 224 234 243 258 268 270 262 259 262 264 259 259 258 255 259 267 274 279 279 278 275 270 263 260 260 263 265 268
208 209 210 206 192 204 237 223 214 234 236 223 222 202 208 206 207 199 197 191 194 218 230 227 239 245 250 254 258 262 263 264 264 269 272 267 263 253 257 259 266 270 269 270 272 272 271 263 258 256 253 254 258 270
205 199 184 188 185 198 234 230 225 189 213 213 188 196 199 201 203 200 177 191 227 227 228 238 246 250 257 261 264 264 266 266 265 264 262 259 259 263 263 266 261 261 261 258 255 252 248 246 241 237 242 251 270 287
203 194 188 184 190 200 232 202 200 201 207 188 166 164 234 213 190 167 233 223 237 235 235 243 252 256 260 264 266 268 269 267 264 264 265 261 259 261 257 254 255 249 240 233 229 224 215 216 224 230 248 270 284 291
186 180 184 178 189 196 175 185 192 161 137 170 165 244 228 183 163 188 253 252 250 254 253 256 257 258 261 262 263 265 267 268 267 261 251 247 243 244 246 241 226 218 214 210 211 212 213 218 235 251 266 277 283 299
180 191 181 185 190 142 177 176 159 181 197 170 189 243 197 159 157 240 234 260 254 253 254 256 258 256 258 265 270 275 277 262 253 248 240 235 238 229 219 206 204 206 208 210 212 216 225 231 240 241 248 237 186 126
201 190 179 185 181 165 191 156 189 177 148 180 211 135 159 146 189 251 220 247 235 250 256 259 265 268 266 268 272 274 272 258 240 232 230 227 220 208 199 197 200 205 209 213 215 218 222 222 223 201 171 156 140 123
195 172 190 195 177 146 99 94 132 144 172 197 162 162 158 203 233 247 238 249 264 270 272 271 269 267 266 270 274 257 240 230 219 216 210 187 183 186 191 200 199 205 208 212 214 215 208 191 172 160 155 149 136 96
196 163 179 173 157 175 139 157 166 192 183 156 136 183 182 199 225 199 212 254 249 254 265 279 267 264 263 250 249 221 213 205 193 181 174 176 181 186 195 205 206 207 206 204 199 185 171 161 159 152 147 144 133 114
180 177 171 173 107 170 198 185 198 197 166 168 175 183 208 184 186 199 211 213 198 234 253 249 251 251 245 236 210 200 203 195 183 175 177 176 179 200 207 206 204 201 198 191 176 164 160 158 153 153 155 148 136 87
170 175 186 165 191 198 203 201 203 202 186 182 174 143 141 143 160 185 212 224 228 236 244 248 251 244 232 213 201 194 187 186 185 191 188 185 196 201 208 206 199 195 185 174 169 165 163 162 161 161 157 149 135 21
184 182 162 161 190 175 191 178 173 169 169 169 168 160 149 148 150 98 34 253 239 239 240 237 234 227 204 197 199 195 193 191 190 188 195 193 195 195 197 192 192 185 178 171 169 168 165 163 161 161 157 158 316 332
336 208 160 140 133 141 136 125 130 114 120 123 106 119 129 117 87 53 9 4 319 265 240 222 215 211 202 202 205 203 196 201 213 215 212 193 176 182 183 188 184 178 175 173 174 170 166 164 167 173 185 244 302 317
55 70 76 100 106 150 153 114 84 78 55 69 55 75 64 80 87 28 15 8 2 339 288 255 236 226 220 216 213 214 216 217 214 207 204 185 172 179 183 181 177 176 175 176 175 172 172 177 185 200 241 285 303 313
Wind_Speed_850mb
8 9 8 1 5 8 9 6 5 6 7 12 14 13 3 7 10 10 9 3 3 7 8 13 9 8 12 15 7 13 11 4 5 5 7 7 7 9 3 8 12 13 15 9 10 7 19 12 5 22 12 10 10 7
5 6 8 9 8 5 9 8 8 6 6 10 25 23 12 10 10 8 6 4 3 2 6 2 6 15 14 16 12 28 3 10 15 5 2 5 3 4 8 7 2 6 12 9 18 14 10 27 4 12 13 12 4 9
6 8 10 10 8 11 12 6 7 6 5 9 6 19 15 12 9 7 5 4 3 1 0 4 5 10 16 15 21 9 8 15 11 11 14 6 5 6 7 10 5 11 17 8 3 7 11 35 25 14 5 9 9 23
7 8 10 13 13 11 9 11 9 7 8 5 3 10 11 8 5 5 8 8 9 3 5 4 6 7 10 18 20 19 11 12 8 13 4 3 4 11 6 6 8 12 12 9 11 9 18 24 34 13 9 16 20 26
6 6 8 9 13 17 16 12 10 9 8 9 12 13 14 14 11 12 14 8 13 6 3 9 3 7 10 14 18 22 19 14 7 3 3 5 7 1 3 4 12 24 18 10 16 18 12 10 13 21 34 31 33 31
7 7 7 8 11 12 16 18 18 14 10 10 9 14 20 20 16 9 5 7 15 6 5 2 4 1 3 9 7 4 14 16 9 7 7 10 10 8 4 9 21 37 54 60 22 33 24 20 34 42 31 28 27 30
4 6 8 7 8 13 14 17 19 20 16 11 10 8 13 17 15 12 6 13 18 9 5 6 2 5 9 13 11 12 13 8 10 6 10 6 7 13 5 9 14 30 31 36 50 39 31 34 19 23 28 27 27 29
4 4 6 8 9 11 13 16 19 23 19 12 8 3 12 17 18 15 17 19 16 9 7 6 3 4 14 10 8 11 7 9 8 7 5 3 6 7 12 36 17 22 20 28 31 30 29 26 24 23 26 32 34 30
8 10 11 11 11 14 17 16 16 19 20 12 7 7 5 4 5 6 11 15 22 11 5 6 10 8 17 8 7 9 7 3 5 3 2 3 4 13 19 33 38 31 16 9 8 17 21 28 35 36 36 29 30 26
14 14 14 14 13 13 14 16 17 22 20 12 8 2 3 3 7 8 3 7 9 9 8 5 11 3 9 10 5 7 5 4 3 5 8 3 9 59 67 63 56 45 31 28 30 35 36 35 22 22 25 27 26 23
20 19 20 19 18 18 17 17 15 16 13 10 5 4 4 7 5 5 4 3 2 4 8 7 11 7 12 6 6 5 4 2 1 6 5 5 7 12 10 15 15 22 43 55 54 48 41 34 28 23 22 23 24 23
27 26 25 23 23 23 21 21 17 14 15 14 15 9 6 4 3 6 3 5 2 9 12 12 10 7 10 8 8 2 6 3 9 5 5 7 10 27 20 10 11 13 15 17 20 23 26 26 24 21 21 23 25 23
33 31 30 28 25 24 23 25 20 17 22 13 2 6 5 2 6 11 10 8 4 17 24 18 4 9 9 6 13 6 6 8 2 4 8 11 17 11 12 18 21 22 22 21 21 22 24 24 23 24 23 27 27 24
38 37 34 32 28 25 22 22 17 12 8 4 5 7 9 6 10 10 9 9 8 6 39 29 17 7 7 7 3 7 4 4 5 3 13 7 23 10 29 23 23 19 22 25 26 27 28 27 27 26 26 29 28 24
44 41 38 35 29 23 20 22 15 8 6 7 7 9 13 14 11 9 17 11 13 44 39 20 14 5 4 7 3 7 7 8 13 11 8 15 10 21 22 17 13 13 17 22 27 31 28 29 32 30 30 31 29 29
46 41 47 37 33 25 32 19 16 9 8 12 16 5 12 1 6 17 28 21 37 50 22 9 7 7 5 8 6 15 12 15 9 8 28 18 17 23 21 18 18 23 29 33 35 33 32 34 36 35 32 32 31 28
44 53 44 34 32 39 27 24 11 14 14 13 16 34 26 11 10 13 29 29 51 38 6 9 9 19 7 4 7 11 13 10 19 28 21 17 22 27 27 27 30 34 35 34 30 27 30 34 38 38 33 31 32 28
61 62 50 34 50 41 35 26 13 14 18 30 12 25 31 30 20 22 30 44 48 32 25 12 22 7 13 13 10 11 46 46 38 29 26 24 25 30 35 35 35 33 30 28 29 32 36 39 39 34 34 33 27 25
67 62 49 48 43 37 21 24 22 14 32 14 28 31 27 23 42 30 35 52 46 31 18 20 6 10 14 17 24 36 36 36 35 34 35 33 38 38 38 36 34 34 35 37 40 41 40 38 34 32 28 26 22 21
62 61 57 45 43 32 16 15 23 16 13 14 26 22 18 16 29 34 40 57 49 20 10 8 15 40 30 52 47 52 48 41 39 41 44 41 36 35 34 35 37 40 41 42 39 36 33 30 28 25 23 21 18 18
60 69 56 54 61 40 14 15 21 15 12 14 13 19 11 14 18 26 31 54 31 19 10 71 92 103 90 83 80 79 74 66 62 55 50 37 38 34 37 39 42 41 38 35 33 31 29 25 25 21 20 18 15 16
72 74 70 73 32 27 26 30 17 14 14 9 15 20 10 8 16 21 31 35 24 46 64 81 89 84 91 105 103 99 90 76 66 61 56 52 47 47 47 45 39 35 32 27 24 23 21 18 16 15 15 14 15 18
70 80 54 41 27 37 17 34 23 22 8 10 15 4 8 12 14 29 15 27 33 44 75 96 106 107 109 103 99 96 83 71 70 69 65 61 54 51 43 37 33 28 23 19 17 15 13 13 13 13 14 15 16 16
79 50 37 41 39 15 23 25 15 16 10 7 8 8 7 14 20 8 11 15 58 56 51 66 74 90 102 105 99 97 92 81 70 59 56 52 45 39 35 31 26 24 21 17 16 15 14 14 13 13 12 11 10 7
29 27 25 15 29 15 13 12 10 6 9 9 8 9 6 14 4 9 10 10 39 58 74 72 72 78 90 90 83 75 59 54 57 53 44 40 37 35 33 30 27 24 20 18 17 16 15 13 12 10 8 5 2 2
28 32 35 31 25 17 21 18 22 16 10 14 16 13 11 6 4 16 7 7 6 28 42 51 54 57 67 67 67 59 43 35 38 45 40 37 33 30 29 27 24 21 19 19 18 16 15 13 11 8 8 8 7 5
22 16 29 38 32 23 13 13 14 8 15 18 11 14 10 11 15 10 12 14 13 21 27 33 35 36 39 35 31 33 31 29 34 30 26 35 37 30 25 20 17 18 17 18 17 15 13 12 13 14 13 10 6 3
17 31 32 27 13 28 15 11 17 23 13 19 24 14 23 21 12 7 9 9 8 8 9 9 16 23 25 20 20 26 31 31 31 34 35 36 31 24 19 19 21 18 16 17 16 16 18 19 18 16 13 9 7 5
8 33 51 18 6 9 16 19 19 27 41 39 19 12 12 17 13 12 10 10 9 8 13 15 14 16 17 17 21 29 29 35 41 46 42 37 29 23 23 23 21 20 20 20 20 22 21 20 18 14 12 10 7 3
16 48 19 18 20 23 20 36 23 42 48 30 23 17 15 13 12 10 9 10 11 14 16 16 14 14 14 19 26 30 36 41 38 33 33 26 23 17 22 24 22 23 25 26 26 25 23 20 17 15 11 7 3 3
43 42 11 10 10 9 26 28 32 36 38 27 22 17 20 19 16 8 4 5 9 11 12 12 14 13 16 19 24 26 37 42 35 29 29 27 25 20 22 25 26 27 27 27 26 24 22 21 18 14 9 4 2 8
8 7 13 11 4 23 32 10 17 10 9 10 8 12 15 11 9 9 21 13 6 7 8 10 14 16 19 25 25 24 21 28 36 27 23 24 24 26 28 28 30 31 30 29 27 24 23 19 15 12 7 4 8 14
3 9 11 9 6 6 11 14 8 6 13 8 10 9 10 10 8 20 28 29 18 10 10 12 16 18 21 24 26 26 26 23 24 32 30 31 31 30 29 31 32 31 29 28 26 24 21 18 15 10 7 10 16 22
Wind_Direction_850mb
43 52 72 214 235 200 201 205 209 247 292 254 219 209 228 9 347 339 329 323 39 108 157 184 189 164 160 175 153 162 131 203 124 146 146 213 172 218 185 227 180 173 171 191 178 179 262 181 107 165 192 160 171 148
26 30 36 63 43 315 257 230 224 247 272 285 237 218 234 269 283 297 300 253 167 79 139 181 265 223 215 191 161 176 178 157 156 109 198 101 184 185 190 260 213 237 196 188 183 208 269 219 295 210 116 118 117 307
32 28 16 29 35 26 13 318 267 278 316 11 146 195 225 248 269 287 279 179 188 188 322 181 208 202 218 209 199 180 220 176 189 187 169 189 202 138 181 235 218 236 204 224 97 203 246 269 279 286 286 302 295 297
50 43 32 21 18 16 12 1 351 309 285 283 189 205 232 249 268 283 278 194 193 180 145 144 183 219 225 217 214 213 169 180 179 181 156 142 191 186 233 251 210 211 142 201 255 260 250 230 231 218 276 289 287 293
46 29 21 19 14 2 354 348 331 332 322 280 258 244 238 245 261 278 290 262 204 197 169 143 179 222 237 231 221 214 210 197 167 173 159 225 233 186 266 305 245 199 217 198 242 213 230 205 259 282 309 306 296 296
82 53 38 21 20 355 0 360 349 336 309 298 294 260 250 247 249 258 240 188 177 199 168 96 125 200 164 184 192 159 201 202 184 200 218 232 233 212 249 253 249 230 239 243 241 256 249 281 289 285 273 275 279 286
76 48 36 23 13 353 351 351 352 351 335 309 293 280 244 243 240 217 214 176 185 197 201 91 81 173 171 152 171 192 195 201 204 225 233 234 238 215 236 245 246 228 229 246 243 252 263 257 254 254 269 281 291 297
310 334 348 6 2 355 353 350 349 354 355 343 322 244 197 209 246 239 214 187 203 230 209 116 248 202 182 180 183 190 195 195 220 260 263 312 261 241 253 243 236 243 258 261 245 236 243 262 268 275 284 290 292 296
286 308 316 320 339 350 356 356 355 357 355 349 278 282 286 231 209 196 200 208 206 214 198 143 148 210 170 164 159 162 193 195 238 236 277 303 235 230 235 257 263 266 251 242 248 229 247 270 279 281 283 287 293 293
277 282 288 298 304 311 330 346 352 353 349 336 312 257 229 196 163 159 177 174 187 216 227 181 141 151 151 160 134 142 205 216 220 262 308 171 256 256 254 252 257 256 249 239 246 249 262 275 262 256 265 271 274 277
269 279 286 290 290 290 294 312 337 348 352 346 309 266 207 182 203 179 188 118 284 324 209 151 183 146 177 135 178 195 193 308 287 264 148 281 271 246 269 249 236 233 241 250 253 257 258 259 267 272 278 278 276 280
264 271 276 280 286 289 289 293 305 323 326 308 266 237 244 206 157 94 242 337 138 222 177 147 147 130 143 153 119 143 130 43 236 329 61 270 252 255 245 193 194 204 211 215 221 227 237 246 259 276 283 278 276 279
259 263 266 270 272 275 280 285 296 314 325 319 168 188 187 204 37 147 215 276 285 177 174 160 142 145 131 149 83 93 101 218 151 51 235 234 257 230 232 223 230 236 238 243 249 252 256 259 273 283 282 278 276 278
256 259 260 260 260 260 261 267 281 303 323 279 222 275 164 251 242 191 185 193 179 179 155 137 115 135 123 76 124 107 233 63 29 313 237 249 252 258 215 231 251 253 259 259 264 268 270 268 272 278 278 278 281 281
249 250 250 248 244 236 233 249 254 271 247 254 198 237 217 233 246 220 207 168 150 150 146 117 90 139 21 88 37 99 28 259 212 231 230 244 249 218 208 222 246 266 277 280 274 268 266 263 271 276 281 281 279 277
243 246 240 237 230 210 221 221 227 232 229 228 228 263 218 224 235 208 200 185 165 158 145 123 111 69 249 135 119 215 145 225 242 217 236 235 234 214 216 235 256 274 284 282 277 269 264 267 274 279 278 276 276 278
227 232 242 232 210 209 207 204 214 222 230 228 241 223 222 257 222 191 195 181 172 163 175 133 137 211 109 52 253 192 212 219 206 221 209 227 234 227 243 259 274 281 283 282 276 275 278 280 279 277 276 269 271 274
221 231 233 217 206 197 199 198 218 240 241 232 218 228 219 222 219 206 198 183 170 187 161 199 138 159 202 198 238 226 227 237 241 236 243 245 231 240 254 263 265 268 267 268 277 284 285 282 277 273 265 267 268 272
223 223 217 222 201 189 193 202 208 244 235 232 234 234 223 229 223 226 205 192 188 179 171 167 172 208 223 220 235 250 249 255 261 262 261 250 258 259 258 257 256 258 265 275 283 284 281 277 272 265 265 266 268 273
216 213 219 216 202 189 214 218 201 246 243 228 225 210 209 215 221 217 211 195 188 178 193 208 221 231 224 234 243 258 268 270 262 259 262 264 259 259 258 255 259 267 274 279 279 278 275 270 263 260 260 263 265 268
208 209 210 206 192 204 237 223 214 234 236 223 222 202 208 206 207 199 197 191 194 218 230 227 239 245 250 254 258 262 263 264 264 269 272 267 263 253 257 259 266 270 269 270 272 272 271 263 258 256 253 254 258 270
205 199 184 188 185 198 234 230 225 189 213 213 188 196 199 201 203 200 177 191 227 227 228 238 246 250 257 261 264 264 266 266 265 264 262 259 259 263 263 266 261 261 261 258 255 252 248 246 241 237 242 251 270 287
203 194 188 184 190 200 232 202 200 201 207 188 166 164 234 213 190 167 233 223 237 235 235 243 252 256 260 264 266 268 269 267 264 264 265 261 259 261 257 254 255 249 240 233 229 224 215 216 224 230 248 270 284 291
186 180 184 178 189 196 175 185 192 161 137 170 165 244 228 183 163 188 253 252 250 254 253 256 257 258 261 262 263 265 267 268 267 261 251 247 243 244 246 241 226 218 214 210 211 212 213 218 235 251 266 277 283 299
180 191 181 185 190 142 177 176 159 181 197 170 189 243 197 159 157 240 234 260 254 253 254 256 258 256 258 265 270 275 277 262 253 248 240 235 238 229 219 206 204 206 208 210 212 216 225 231 240 241 248 237 186 126
201 190 179 185 181 165 191 156 189 177 148 180 211 135 159 146 189 251 220 247 235 250 256 259 265 268 266 268 272 274 272 258 240 232 230 227 220 208 199 197 200 205 209 213 215 218 222 222 223 201 171 156 140 123
195 172 190 195 177 146 99 94 132 144 172 197 162 162 158 203 233 247 238 249 264 270 272 271 269 267 266 270 274 257 240 230 219 216 210 187 183 186 191 200 199 205 208 212 214 215 208 191 172 160 155 149 136 96
196 163 179 173 157 175 139 157 166 192 183 156 136 183 182 199 225 199 212 254 249 254 265 279 267 264 263 250 249 221 213 205 193 181 174 176 181 186 195 205 206 207 206 204 199 185 171 161 159 152 147 144 133 114
180 177 171 173 107 170 198 185 198 197 166 168 175 183 208 184 186 199 211 213 198 234 253 249 251 251 245 236 210 200 203 195 183 175 177 176 179 200 207 206 204 201 198 191 176 164 160 158 153 153 155 148 136 87
170 175 186 165 191 198 203 201 203 202 186 182 174 143 141 143 160 185 212 224 228 236 244 248 251 244 232 213 201 194 187 186 185 191 188 185 196 201 208 206 199 195 185 174 169 165 163 162 161 161 157 149 135 21
184 182 162 161 190 175 191 178 173 169 169 169 168 160 149 148 150 98 34 253 239 239 240 237 234 227 204 197 199 195 193 191 190 188 195 193 195 195 197 192 192 185 178 171 169 168 165 163 161 161 157 158 316 332
336 208 160 140 133 141 136 125 130 114 120 123 106 119 129 117 87 53 9 4 319 265 240 222 215 211 202 202 205 203 196 201 213 215 212 193 176 182 183 188 184 178 175 173 174 170 166 164 167 173 185 244 302 317
55 70 76 100 106 150 153 114 84 78 55 69 55 75 64 80 87 28 15 8 2 339 288 255 236 226 220 216 213 214 216 217 214 207 204 185 172 179 183 181 177 176 175 176 175 172 172 177 185 200 241 285 303 313